Volver al catálogo

CZ-6A DEB

ActivoSSO
NORAD 54542·DEBRIS·🇨🇳 China

Lanzado Nov 11, 2022 desde Taiyuan Satellite Launch Center

Loading…

Próximos Pases (próximas 24 horas)

TLE

ActualizadoSource: Space-Track

Época: Sep 14, 2026, 11:14 UTC

1 54542U 22151KS  26257.46813695  .00000318  00000-0  19227-3 0  9991
2 54542  98.8328 261.0448 0036735  64.8727 295.6249 14.13088299197653

Sigue CZ-6A DEB en tiempo real con AllMySat

Download on the App Store